Regional Weather Roundup
Issued by NWS

Home | Current Version | Previous Version | Graphics & Text | Print | Product List | Glossary On
Versions: 1 2 3 4 5 6 7 8 9 10 11 12 13 14 15 16 17 18 19 20 21 22 23 24 25 26 27 28 29 30 31 32 33 34 35 36 37 38 39 40 41 42 43 44 45 46 47 48 49 50
743
ASUS45 KCYS 051610
RWRWY

WYOMING REGIONAL WEATHER ROUNDUP
NATIONAL WEATHER SERVICE CHEYENNE WY
900 AM MST MON DEC 05 2016

NOTE:  "FAIR" INDICATES FEW OR NO CLOUDS BELOW 12,000 FEET
WITH NO SIGNIFICANT WEATHER AND/OR OBSTRUCTIONS TO VISIBILITY.

WYZ001-051700-
YELLOWSTONE NATIONAL PARK

CITY           SKY/WX    TMP DP  RH WIND       PRES   REMARKS
LK YELLOWSTONE   N/A      3  -3  76 VRB6      29.72R WCI  -8
W YELLOWSTONE  NOT AVBL

$$
WYZ002>013-054>058-071-098>099-051700-
NORTHERN WYOMING

CITY           SKY/WX    TMP DP  RH WIND       PRES   REMARKS
JACKSON        FAIR      14  -2  48 NW12G26   29.83R WCI   0
CODY           PTSUNNY   14   9  80 NE9       29.79R WCI   2
GREYBULL       FAIR      25  12  58 NW17      29.76R WCI  12
WORLAND        CLOUDY    24  15  68 N16G25    29.75R WCI  11
SHERIDAN       CLOUDY    21  16  81 NW17      29.79R WCI   7
BUFFALO        NOT AVBL
GILLETTE       LGT SNOW  19  18  93 N22G30    29.67R VSB 1   WCI   3
HULETT         LGT SNOW  23  19  86 NW13G18   29.68R WCI  11
NEWCASTLE      LGT SNOW  27  19  74 NW26G33   29.60R WCI  11

$$
WYZ014>020-022>026-101>103-051700-
CENTRAL WYOMING

CITY           SKY/WX    TMP DP  RH WIND       PRES   REMARKS
BIG PINEY      FAIR      13   1  59 NW14      29.82R WCI  -2
PINEDALE       FAIR      12  -4  48 MISG      29.79R
DUBOIS         FAIR      12  -4  48 W28G37    29.69R WCI  -9
LANDER         FAIR      20  13  74 NE12      29.74R WCI   8
RIVERTON       LGT SNOW  20  15  81 NE18G24   29.75R WCI   5
CASPER         HVY SNOW  24  22  91 NW13      29.66R VSB 1/4 WCI  12
DOUGLAS        HVY SNOW  26  24  92 NW10      29.63R VSB 1/4 WCI  16

$$
WYZ021-027>030-104>119-051700-
SOUTHERN WYOMING

CITY           SKY/WX    TMP DP  RH WIND       PRES   REMARKS
EVANSTON       FAIR      14  -9  35 W18       29.87R WCI  -3
FORT BRIDGER   FAIR      12  -1  56 NW7       29.91R WCI   1
ROCK SPRINGS   FAIR      17  -2  43 W23G35    29.82R WCI  -1
DIXON          CLOUDY    24  14  65 W12G17    29.83R WCI  13
RAWLINS        NOT AVBL
SARATOGA       CLOUDY    23  10  58 W22G30    29.72R WCI   8
LARAMIE        FLURRIES  27  19  74 W28G38    29.63R WCI  11
CHEYENNE       NOT AVBL
TORRINGTON     NOT AVBL
PINE BLUFFS    FAIR      36  25  64 S3        29.59S

$$




USA.gov is the U.S. government's official web portal to all federal, state and local government web resources and services.